Wind_Speed
47 47 46 45 43 43 42 41 40 39 38 37 36 36 35 35 34 33 33 32 32 32 31 31 31 31 31 31 31 31 31 31 31 31 31 31 31 32 32 32 33 34 34
48 47 46 46 44 44 43 42 40 40 39 38 37 36 36 35 34 34 33 33 33 33 33 33 33 33 33 33 33 33 33 33 33 33 33 32 32 33 33 34 34 35 36
47 47 46 46 45 44 43 42 41 40 40 38 38 37 36 36 35 35 34 35 34 34 34 35 35 35 35 35 34 34 34 35 35 35 34 34 34 35 35 35 35 36 37
47 47 46 46 46 45 44 43 43 42 41 40 39 38 37 37 37 36 35 35 35 35 35 36 36 36 36 36 36 36 36 36 36 37 37 37 36 37 37 37 37 38 39
47 47 46 46 46 46 45 44 43 43 42 41 40 40 39 39 38 38 37 37 37 37 37 37 37 37 37 37 37 37 37 37 37 38 38 38 39 39 39 39 39 40 41
48 47 46 46 46 46 46 45 44 43 43 42 42 41 40 40 40 39 38 38 38 38 38 38 38 38 38 38 38 38 38 38 39 39 40 40 40 40 40 40 41 41 42
47 48 47 46 46 46 45 45 45 44 44 43 42 42 41 41 41 41 40 40 39 39 38 39 39 40 40 40 39 39 39 40 40 41 41 41 41 42 42 43 43 43 43
46 47 47 46 46 46 45 45 45 44 44 44 43 43 43 43 43 42 42 41 41 40 39 39 40 40 41 41 41 40 40 41 41 42 42 42 42 43 44 44 45 45 44
43 45 46 47 46 46 46 45 45 45 45 44 45 44 44 43 43 43 43 42 41 40 40 40 40 41 41 41 41 41 42 42 43 43 43 44 44 44 45 46 46 47 45
41 43 44 45 46 46 45 45 46 46 45 45 45 45 45 44 44 44 43 42 42 42 41 41 40 40 41 41 41 42 43 43 43 44 44 45 45 45 46 47 47 47 47
39 41 43 44 45 46 46 46 46 46 46 46 46 45 45 45 45 45 44 43 42 42 41 41 41 41 41 41 41 42 43 44 44 44 45 45 46 46 47 47 47 47 48
39 40 40 43 44 46 46 46 46 46 46 46 46 46 46 46 45 44 44 44 43 43 43 42 42 42 42 42 42 43 44 45 45 46 46 46 47 47 47 48 48 49 49
38 39 39 40 43 45 46 46 46 46 46 47 47 46 46 46 45 45 44 44 44 44 44 43 43 43 43 43 44 44 45 45 46 47 47 47 48 47 48 48 49 49 50
37 39 39 40 42 44 46 46 46 46 46 47 47 47 46 46 46 46 46 45 45 45 45 44 44 44 44 44 45 45 46 46 47 47 48 49 49 48 48 49 50 50 51
36 38 39 40 41 44 45 46 46 46 46 46 47 47 47 46 46 46 46 46 45 45 45 45 45 45 46 46 46 47 46 47 48 48 49 49 50 49 50 50 51 51 51
34 36 38 39 40 42 45 47 46 46 47 46 46 47 47 47 47 46 46 45 45 45 45 45 45 45 45 46 46 47 47 48 48 48 49 49 50 50 51 52 52 52 52
33 35 37 38 39 41 43 44 45 46 46 46 47 47 47 48 48 48 47 46 46 45 45 45 45 45 45 46 47 48 48 48 48 48 49 49 50 50 51 52 52 51 51
33 35 36 37 38 40 42 43 44 44 45 46 46 47 47 47 47 47 48 47 47 46 46 46 46 46 46 47 48 48 48 48 48 49 49 50 50 50 51 51 51 51 51
33 35 36 37 37 38 40 42 43 43 44 45 45 46 46 46 47 48 48 48 48 47 47 47 48 48 48 48 48 48 48 49 49 49 50 49 49 50 50 50 51 51 50
33 34 36 37 38 38 39 40 41 42 44 45 45 45 46 46 47 47 48 48 48 49 49 49 49 49 49 49 49 49 49 49 49 49 49 49 49 49 49 49 49 49 49
33 34 35 36 36 37 38 40 41 42 44 45 45 44 45 46 47 47 47 47 48 48 49 48 49 49 49 49 48 48 48 48 49 49 48 49 49 49 49 49 48 48 48
33 34 35 36 36 37 37 38 40 41 42 43 44 44 45 45 46 47 46 46 46 46 46 47 48 48 47 47 47 47 48 48 48 48 47 48 48 48 48 48 48 47 47
32 33 35 36 36 37 37 37 38 40 41 42 42 43 43 44 44 45 44 44 44 45 45 45 45 46 46 47 47 47 47 47 47 47 47 47 47 47 47 47 46 46 46
32 32 33 35 36 36 37 38 38 39 39 40 40 41 42 43 44 44 44 44 44 44 45 45 45 45 46 46 46 46 47 47 46 45 45 45 45 45 45 44 44 44 43
32 33 34 35 36 36 37 37 38 39 40 40 41 41 41 42 42 43 43 43 43 44 44 44 44 45 45 45 46 46 46 45 45 45 44 44 44 43 43 43 43 42 42
30 32 33 34 35 36 37 38 39 40 40 41 41 40 40 41 41 41 41 42 43 44 44 44 44 44 44 44 45 45 44 44 44 43 43 43 42 41 41 41 40 41 41
Wind_Direction
230 230 230 231 232 233 234 236 237 237 239 240 242 244 246 248 249 250 252 254 257 259 262 264 266 268 269 271 273 275 277 278 279 281 282 284 284 284 286 288 289 290 291
229 229 229 230 231 233 234 236 237 238 239 240 242 244 246 248 250 251 252 255 257 260 262 264 266 268 269 271 273 274 276 278 279 280 282 283 283 284 286 288 290 290 292
228 229 230 230 231 233 234 235 237 238 238 240 242 244 246 247 249 251 253 255 258 260 262 264 266 268 269 272 273 274 276 278 279 280 281 282 283 284 285 288 290 291 292
227 228 229 231 232 232 233 235 236 237 239 240 242 244 246 248 249 252 254 256 259 261 263 264 266 268 270 272 274 275 276 278 279 280 281 283 284 285 285 287 289 290 291
227 228 229 231 232 232 233 234 236 237 239 240 242 245 246 248 250 252 254 257 259 261 263 264 266 268 271 273 274 274 276 277 278 280 281 283 284 285 286 287 288 290 291
227 228 230 230 232 233 233 234 235 237 239 241 243 245 247 248 250 252 254 257 259 261 263 265 266 268 270 272 273 274 276 277 278 280 281 282 284 285 286 288 289 290 291
228 228 229 231 233 234 235 235 235 237 240 241 243 245 247 249 251 253 255 257 259 262 264 265 266 268 269 270 272 274 275 277 278 280 281 282 284 285 287 288 289 290 291
229 229 230 230 232 234 235 235 236 237 240 241 243 245 247 249 251 254 256 258 260 262 264 265 267 268 270 271 272 273 274 276 278 280 281 282 284 285 287 288 289 290 291
232 231 231 231 232 234 236 237 237 238 240 241 243 245 247 249 252 254 256 257 259 261 263 265 267 269 270 271 272 273 274 276 278 279 281 283 284 285 287 289 290 291 291
234 233 233 234 233 234 236 238 239 239 240 241 243 245 247 249 252 254 256 257 258 260 262 264 266 268 271 272 274 274 275 277 278 279 280 282 284 285 287 288 290 290 291
237 237 235 235 235 235 236 238 239 240 240 241 243 245 247 249 251 253 255 256 258 260 262 264 265 268 271 273 274 276 276 277 278 279 281 282 284 286 287 287 288 289 291
238 238 237 236 237 236 236 237 239 239 240 241 243 245 247 249 251 253 255 257 259 261 262 264 266 269 271 273 275 277 278 278 278 279 281 283 284 285 287 287 287 289 291
238 238 238 238 237 237 236 237 238 239 240 241 243 245 247 249 252 253 256 258 259 260 262 264 267 269 271 274 276 277 278 279 280 281 282 283 284 285 286 286 288 290 291
238 238 238 238 238 237 237 237 237 238 240 242 243 244 247 249 252 253 256 258 259 260 262 264 267 269 272 274 276 278 279 280 281 282 283 284 285 285 286 286 288 289 291
239 238 238 237 238 238 237 237 237 238 239 241 243 244 247 249 251 253 256 257 258 261 263 266 268 270 272 274 276 278 280 281 282 283 283 284 285 285 285 287 289 289 290
239 239 238 237 238 238 238 237 237 238 240 241 243 244 246 248 250 252 254 257 259 261 264 266 268 271 273 275 276 278 281 282 282 283 284 284 285 286 287 288 289 289 290
241 240 239 238 238 238 239 239 239 240 241 242 244 246 247 248 250 252 255 257 259 262 264 266 268 271 273 274 277 280 282 282 283 285 286 286 286 286 287 288 289 290 291
242 242 241 240 239 239 238 239 240 241 242 244 245 246 248 249 250 253 255 257 259 261 263 265 268 271 274 276 278 280 282 282 283 285 286 287 286 286 287 288 289 290 290
243 242 241 242 242 241 240 240 241 242 243 244 246 248 249 250 253 254 255 257 259 261 264 266 269 272 274 276 279 280 281 282 283 284 285 286 286 286 287 288 288 289 289
245 243 242 242 243 244 243 241 241 242 243 245 246 247 249 251 254 256 257 258 260 262 265 267 270 272 274 276 278 279 280 281 282 284 285 285 287 287 287 287 288 288 289
245 244 242 242 243 245 245 244 243 243 244 245 247 249 249 251 253 255 257 258 260 262 265 267 269 272 274 276 277 278 280 281 282 283 284 285 287 287 287 287 288 288 289
247 245 244 244 245 246 246 246 245 245 245 246 247 249 251 252 254 255 256 259 261 263 265 267 269 271 273 275 277 278 280 281 283 283 284 286 287 287 287 287 288 288 289
250 246 246 246 246 247 247 246 246 246 246 247 248 251 253 254 255 256 258 260 262 264 266 268 270 272 274 275 277 279 281 282 282 283 284 286 287 287 287 287 286 287 288
251 248 247 247 246 247 247 247 248 248 249 250 252 254 255 256 257 259 261 262 264 266 268 270 272 273 275 276 277 279 281 281 282 283 285 286 287 287 288 287 287 287 289
250 249 249 249 248 248 248 248 248 249 250 251 253 255 257 258 259 261 262 264 266 268 270 272 273 274 275 276 277 279 280 280 282 283 285 285 286 286 287 286 286 288 290
254 253 252 251 250 250 250 249 250 251 250 252 253 255 257 258 260 262 264 266 267 270 271 272 274 274 275 277 278 279 280 280 282 283 284 285 285 285 285 286 287 289 291
Height
5754 5760 5765 5770 5775 5780 5784 5789 5793 5796 5800 5803 5806 5808 5811 5813 5815 5817 5819 5820 5821 5822 5823 5824 5824 5824 5824 5824 5823 5823 5822 5821 5819 5818 5817 5816 5814 5813 5811 5808 5806 5804 5801
5744 5750 5756 5761 5767 5772 5776 5780 5785 5789 5792 5795 5798 5801 5803 5806 5808 5810 5811 5813 5814 5815 5816 5816 5817 5817 5817 5817 5816 5816 5815 5814 5812 5811 5810 5809 5808 5805 5804 5801 5799 5796 5794
5735 5741 5747 5753 5758 5763 5768 5772 5776 5780 5784 5787 5790 5793 5795 5798 5800 5802 5804 5805 5806 5807 5808 5808 5809 5809 5809 5809 5809 5808 5807 5806 5805 5804 5803 5801 5800 5798 5797 5794 5791 5788 5785
5725 5731 5737 5743 5749 5755 5759 5763 5767 5772 5776 5779 5782 5785 5788 5791 5793 5794 5796 5797 5798 5799 5800 5800 5801 5801 5801 5801 5801 5800 5799 5798 5797 5796 5794 5793 5791 5790 5788 5786 5783 5780 5777
5716 5722 5728 5734 5740 5745 5750 5754 5758 5763 5767 5770 5774 5777 5780 5782 5784 5786 5788 5789 5790 5791 5792 5792 5792 5793 5793 5792 5792 5791 5791 5790 5788 5787 5786 5784 5782 5780 5779 5777 5775 5772 5768
5708 5714 5719 5725 5730 5735 5740 5745 5749 5754 5758 5762 5765 5768 5771 5773 5775 5777 5779 5780 5782 5783 5783 5783 5784 5784 5784 5784 5783 5783 5782 5781 5780 5778 5777 5775 5774 5771 5769 5767 5765 5762 5759
5699 5705 5711 5716 5721 5726 5731 5736 5740 5745 5749 5753 5756 5759 5761 5764 5766 5768 5770 5772 5773 5774 5774 5774 5775 5775 5775 5775 5774 5774 5773 5772 5771 5769 5768 5766 5764 5762 5759 5757 5754 5752 5749
5690 5696 5702 5707 5712 5717 5722 5726 5731 5736 5739 5743 5747 5749 5752 5755 5757 5759 5761 5762 5763 5764 5765 5765 5765 5765 5765 5765 5765 5764 5764 5762 5761 5759 5758 5756 5754 5751 5749 5746 5743 5741 5739
5681 5687 5693 5698 5703 5707 5712 5717 5721 5725 5729 5733 5737 5740 5742 5745 5747 5749 5751 5753 5754 5755 5755 5756 5756 5756 5755 5755 5755 5755 5754 5752 5751 5749 5747 5746 5744 5741 5738 5735 5732 5729 5727
5672 5677 5683 5688 5693 5697 5702 5706 5711 5715 5719 5723 5726 5729 5732 5735 5737 5739 5741 5743 5744 5745 5746 5746 5747 5746 5746 5745 5745 5744 5743 5742 5740 5739 5737 5735 5733 5730 5727 5724 5721 5717 5714
5663 5668 5672 5677 5682 5687 5691 5696 5700 5704 5708 5712 5716 5719 5722 5724 5727 5729 5731 5732 5734 5735 5736 5736 5737 5737 5736 5735 5735 5734 5733 5731 5730 5728 5726 5724 5722 5719 5716 5713 5709 5706 5702
5653 5657 5661 5667 5671 5676 5681 5685 5690 5694 5698 5702 5705 5708 5711 5714 5716 5718 5720 5722 5723 5725 5725 5726 5726 5726 5726 5725 5725 5723 5722 5720 5719 5717 5715 5713 5710 5708 5705 5701 5698 5694 5690
5644 5647 5652 5656 5660 5665 5669 5674 5679 5683 5687 5691 5695 5698 5701 5703 5706 5708 5710 5711 5713 5714 5715 5715 5716 5716 5715 5715 5714 5712 5711 5709 5707 5705 5703 5701 5698 5696 5693 5689 5686 5682 5678
5635 5638 5642 5646 5650 5654 5659 5663 5668 5672 5676 5680 5683 5687 5690 5692 5695 5697 5699 5700 5702 5703 5704 5704 5705 5705 5704 5703 5702 5701 5700 5698 5696 5694 5691 5689 5686 5683 5680 5677 5674 5670 5666
5626 5629 5633 5636 5640 5644 5648 5652 5657 5661 5665 5668 5672 5675 5678 5681 5683 5686 5688 5689 5690 5692 5692 5693 5693 5693 5693 5692 5691 5690 5688 5686 5684 5682 5679 5676 5674 5671 5668 5664 5661 5657 5653
5618 5620 5623 5626 5630 5633 5637 5641 5645 5649 5653 5657 5661 5664 5667 5670 5672 5674 5676 5677 5679 5680 5680 5681 5682 5681 5681 5680 5679 5678 5676 5674 5672 5669 5667 5664 5661 5658 5655 5651 5647 5643 5639
5609 5611 5613 5616 5620 5623 5627 5631 5635 5638 5642 5646 5649 5652 5655 5658 5660 5662 5664 5666 5667 5668 5669 5670 5670 5670 5669 5668 5667 5665 5664 5662 5660 5657 5655 5652 5648 5645 5642 5639 5635 5630 5626
5599 5602 5604 5607 5610 5613 5617 5620 5624 5628 5631 5635 5638 5641 5644 5646 5648 5650 5652 5654 5655 5656 5657 5657 5657 5657 5657 5656 5655 5653 5651 5649 5647 5645 5642 5639 5636 5632 5629 5626 5622 5618 5614
5590 5592 5594 5597 5600 5603 5606 5610 5613 5616 5620 5623 5626 5629 5632 5634 5636 5638 5640 5642 5643 5644 5645 5645 5645 5645 5644 5643 5642 5640 5638 5637 5635 5632 5629 5626 5623 5619 5616 5613 5610 5606 5601
5580 5582 5585 5587 5590 5593 5596 5599 5602 5605 5609 5611 5614 5617 5620 5622 5624 5626 5628 5629 5630 5631 5632 5632 5632 5632 5631 5630 5629 5627 5626 5624 5622 5619 5616 5613 5609 5606 5602 5599 5596 5593 5589
5571 5573 5575 5578 5580 5583 5586 5589 5591 5594 5597 5600 5603 5605 5608 5610 5612 5614 5616 5617 5618 5619 5619 5620 5619 5619 5618 5617 5616 5614 5612 5610 5608 5606 5603 5600 5596 5593 5589 5586 5583 5580 5576
5562 5564 5566 5569 5571 5574 5576 5578 5581 5584 5586 5589 5591 5594 5596 5598 5600 5602 5603 5604 5605 5606 5606 5607 5606 5606 5605 5604 5602 5601 5599 5597 5595 5593 5590 5587 5583 5580 5576 5573 5570 5567 5563
5553 5555 5557 5559 5562 5563 5566 5568 5570 5573 5575 5578 5580 5582 5584 5586 5587 5589 5590 5591 5592 5593 5594 5594 5593 5593 5592 5591 5589 5588 5586 5584 5582 5580 5577 5574 5570 5567 5564 5561 5557 5554 5551
5544 5545 5547 5549 5552 5553 5555 5558 5560 5562 5564 5567 5569 5571 5572 5574 5575 5577 5578 5579 5580 5581 5581 5581 5581 5580 5579 5578 5576 5575 5573 5571 5569 5566 5564 5561 5558 5555 5552 5548 5545 5542 5539
5534 5536 5537 5539 5541 5543 5545 5547 5549 5551 5553 5555 5557 5559 5561 5562 5564 5565 5566 5567 5568 5568 5568 5568 5568 5567 5567 5565 5563 5562 5560 5558 5556 5554 5551 5549 5546 5543 5540 5537 5534 5531 5527
5525 5526 5527 5529 5530 5532 5533 5535 5537 5540 5542 5544 5546 5548 5549 5551 5552 5553 5554 5554 5555 5555 5555 5555 5555 5554 5554 5552 5550 5549 5547 5545 5544 5541 5539 5537 5534 5531 5528 5526 5523 5520 5516